This demonstration page uses our WeatherBlox Daily Observations layout. Learn more.

Left ArrowRight Arrow

39.51506, -84.39828

Hourly Observations for September 18, 2015

Temp ( °F °C ) Dew Point ( °F °C ) Humidity (%) Winds ( mph kmh ) Pressure ( in mb ) Visibility ( mi km ) Precip ( " mm )
12:15 am 00:15 Clear 58 14.6 55 12.7 88 88 Calm 30.03 1017 10 16.0934 0 0
12:35 am 00:35 Clear 57 14.1 54 12.4 90 90 Calm 30.03 1017 7 11.26538 0 0
12:55 am 00:55 Clear 57 13.9 54 12.2 90 90 Calm 30.03 1017 10 16.0934 0 0
1:15 am 01:15 Clear with Mist and Fog 57 13.8 54 12 89 89 Calm 30.03 1017 4 6.43736 0 0
1:35 am 01:35 Mostly Cloudy with Mist and Fog 57 13.8 54 12 89 89 Calm 30.03 1017 1 1.60934 0 0
1:55 am 01:55 Clear 57 13.8 54 12.2 90 90 Calm 30.03 1017 10 16.0934 0 0
2:15 am 02:15 Clear with Mist and Fog 56 13.3 53 11.7 90 90 Calm 30.03 1017 5 8.0467 0 0
2:20 am 02:20 Clear 57 13.8 54 12.2 90 90 Calm 30.03 1017 7 11.26538 0 0
2:35 am 02:35 Clear 57 13.8 54 12.2 90 90 Calm 30.03 1017 7 11.26538 0 0
2:55 am 02:55 Clear 56 13.2 53 11.6 90 90 Calm 30.03 1017 7 11.26538 0 0
3:15 am 03:15 Clear 55 12.8 52 11.2 90 90 Calm 30 1016 10 16.0934 0 0
3:35 am 03:35 Clear with Mist and Fog 55 12.9 53 11.4 91 91 Calm 30.03 1017 2 3.21868 0 0
3:55 am 03:55 Clear with Mist and Fog 55 12.5 52 11 91 91 Calm 30.03 1017 4 6.43736 0 0
4:15 am 04:15 Clear 55 12.5 52 10.9 90 90 Calm 30.03 1017 7 11.26538 0 0
4:35 am 04:35 Clear 55 12.5 52 11 91 91 Calm 30 1016 10 16.0934 0 0
4:55 am 04:55 Clear 55 12.5 52 11 91 91 Calm 30 1016 7 11.26538 0 0
5:15 am 05:15 Clear with Mist and Fog 55 12.6 52 11.2 91 91 Calm 30 1016 3 4.82802 0 0
5:35 am 05:35 Clear with Mist and Fog 55 12.5 52 11 91 91 Calm 30 1016 3 4.82802 0 0
5:40 am 05:40 Clear with Mist and Fog 55 12.5 52 11 91 91 Calm 30 1016 5 8.0467 0 0
5:55 am 05:55 Mostly Cloudy with Mist and Fog 55 12.5 52 11 91 91 Calm 30 1016 0.75 1.207005 0 0
6:15 am 06:15 Clear 56 13.2 53 11.8 91 91 Calm 30 1016 7 11.26538 0 0
6:35 am 06:35 Clear 57 13.8 55 12.5 92 92 Calm 30 1016 7 11.26538 0 0
6:55 am 06:55 Clear with Mist and Fog 55 12.5 52 10.9 90 90 Calm 30 1016 3 4.82802 0 0
7:15 am 07:15 Mostly Cloudy with Mist and Fog 56 13.4 54 12 91 91 Calm 30 1016 0.75 1.207005 0 0
7:35 am 07:35 Mostly Cloudy with Mist and Fog 57 13.8 55 12.5 92 92 Calm 30 1016 0.75 1.207005 0 0
7:55 am 07:55 Sunny with Mist and Fog 57 13.8 55 12.5 92 92 Calm 30.03 1017 2 3.21868 0 0
8:15 am 08:15 Sunny with Mist and Fog 57 14 55 12.7 92 92 Calm 30.03 1017 5 8.0467 0 0
8:35 am 08:35 Sunny 61 16 58 14.5 91 91 Calm 30 1016 7 11.26538 0 0
8:55 am 08:55 Sunny 63 17.3 60 15.4 89 89 Calm 30 1016 10 16.0934 0 0
9:15 am 09:15 Partly Cloudy 69 20.8 63 17 79 79 SSW 5 7 30 1016 10 16.0934 0 0
9:35 am 09:35 Mostly Cloudy N/A N/A N/A undefined N/A N/A 10 16.0934 0 0
9:55 am 09:55 Mostly Cloudy 69 20.8 60 15.6 72 72 WNW 7 11 30 1016 10 16.0934 0 0
10:15 am 10:15 Cloudy 69 20.8 60 15.5 72 72 W 6 9 30.03 1017 10 16.0934 0 0
10:35 am 10:35 Cloudy with Light Rain 69 20.8 61 15.9 74 74 SW 8 13 30.03 1017 10 16.0934 0 0
10:55 am 10:55 Cloudy with Light Rain 69 20.8 62 16.8 78 78 S 9 15 30 1016 10 16.0934 0 0
11:15 am 11:15 Mostly Cloudy 69 20.8 63 17.3 80 80 WSW 7 11 29.97 1015 10 16.0934 0 0
11:35 am 11:35 Partly Cloudy 69 20.8 63 17.1 79 79 SW 10 17 29.94 1014 10 16.0934 0 0
11:55 am 11:55 Partly Cloudy 74 23.6 65 18.2 72 72 SSW 17 28 29.94 1014 10 16.0934 0 0
12:15 pm 12:15 Sunny 74 23.6 64 17.8 70 70 Calm 29.94 1014 10 16.0934 0 0
12:35 pm 12:35 Sunny 74 23.6 65 18.4 73 73 Calm 29.94 1014 10 16.0934 0 0
12:55 pm 12:55 Sunny 74 23.6 64 17.7 70 70 NNW 3 6 29.94 1014 10 16.0934 0 0
1:15 pm 13:15 Sunny 74 23.6 63 17 67 67 Calm 29.94 1014 10 16.0934 0 0
1:35 pm 13:35 Sunny 77 25.1 65 18.1 65 65 SW 3 6 29.94 1014 10 16.0934 0 0
1:55 pm 13:55 Sunny 80 26.5 62 16.7 55 55 SW 13 20 29.94 1014 10 16.0934 0 0
2:15 pm 14:15 Sunny 81 27.2 62 16.6 52 52 SW 14 22 29.94 1014 10 16.0934 0 0
2:35 pm 14:35 Sunny 81 27.3 61 16.2 51 51 SW 14 22 29.91 1013 10 16.0934 0 0
2:55 pm 14:55 Sunny 82 27.9 62 16.5 50 50 WSW 9 15 29.88 1012 10 16.0934 0 0
3:15 pm 15:15 Sunny 83 28.6 62 16.5 48 48 SW 13 20 29.88 1012 10 16.0934 0 0
3:35 pm 15:35 Partly Cloudy 84 28.7 61 16.1 46 46 SSW 14 22 29.88 1012 10 16.0934 0 0
3:55 pm 15:55 Mostly Cloudy 83 28.1 61 16.3 49 49 SW 8 13 29.88 1012 10 16.0934 0 0
4:15 pm 16:15 Partly Cloudy 84 28.9 61 16.2 46 46 SW 9 15 29.85 1011 10 16.0934 0 0
4:35 pm 16:35 Sunny 84 28.9 61 16.2 46 46 SW 9 15 29.85 1011 10 16.0934 0 0
4:55 pm 16:55 Mostly Cloudy 83 28.2 62 16.4 49 49 SW 9 15 29.85 1011 10 16.0934 0 0
5:15 pm 17:15 Cloudy 83 28.2 62 16.5 49 49 SW 8 13 29.85 1011 10 16.0934 0 0
5:35 pm 17:35 Cloudy 83 28.1 63 17.1 51 51 SW 9 15 29.85 1011 10 16.0934 0 0
5:55 pm 17:55 Cloudy 83 28.4 62 16.9 50 50 SW 9 15 29.85 1011 10 16.0934 0 0
6:15 pm 18:15 Mostly Cloudy 82 27.9 63 17 52 52 SW 7 11 29.85 1011 10 16.0934 0 0
6:35 pm 18:35 Partly Cloudy 81 27.3 62 16.7 52 52 SSW 8 13 29.85 1011 10 16.0934 0 0
6:55 pm 18:55 Partly Cloudy 81 27.1 64 17.6 56 56 SW 7 11 29.85 1011 10 16.0934 0 0
7:15 pm 19:15 Partly Cloudy 80 26.5 63 17.2 57 57 SW 5 7 29.85 1011 10 16.0934 0 0
7:35 pm 19:35 Mostly Cloudy 78 25.4 64 17.7 62 62 SW 5 7 29.88 1012 10 16.0934 0 0
7:55 pm 19:55 Cloudy 77 25.1 65 18.1 65 65 Calm 29.88 1012 10 16.0934 0 0
8:15 pm 20:15 Mostly Cloudy 77 25.1 65 18.5 67 67 Calm 29.88 1012 10 16.0934 0 0
8:35 pm 20:35 Partly Cloudy 74 23.6 67 19.3 77 77 Calm 29.88 1012 10 16.0934 0 0
8:55 pm 20:55 Partly Cloudy 74 23.6 68 20.1 81 81 Calm 29.91 1013 10 16.0934 0 0
9:15 pm 21:15 Cloudy 74 23.6 69 20.3 82 82 Calm 29.91 1013 10 16.0934 0 0
9:35 pm 21:35 Cloudy 74 23.6 69 20.5 83 83 Calm 29.91 1013 10 16.0934 0 0
9:55 pm 21:55 Cloudy 74 23.6 68 20.2 81 81 Calm 29.91 1013 10 16.0934 0 0
10:15 pm 22:15 Cloudy 74 23.6 67 19.7 79 79 Calm 29.88 1012 10 16.0934 0 0
10:35 pm 22:35 Partly Cloudy 72 22.3 67 19.2 83 83 Calm 29.88 1012 10 16.0934 0 0
10:55 pm 22:55 Clear 71 21.8 65 18.6 82 82 WSW 5 7 29.88 1012 10 16.0934 0 0
11:15 pm 23:15 Partly Cloudy 74 23.6 66 19 75 75 SSW 5 7 29.88 1012 10 16.0934 0 0
11:35 pm 23:35 Clear 74 23.1 66 18.7 76 76 SW 3 6 29.88 1012 10 16.0934 0 0
11:55 pm 23:55 Partly Cloudy 74 23.6 66 19.1 76 76 SW 5 7 29.88 1012 10 16.0934 0 0

Powered by AerisWeather